FW8055 Weather Reports


time (UTC)temp
C
wind
direction
speed
KPH
gust
KPH
rain 1hr
cm
rain 24hr
cm
rain mn
cm
humidity
%
barometer
mb
20260502163050 12 360 1.6 4.8 0.00 0.00 0.00 77 1016.0
20260502161550 12 40 1.6 8.0 0.00 0.00 0.00 78 1015.9
20260502151600 11 19 1.6 6.4 0.00 0.00 0.00 82 1016.2
20260502123047 10 0 0.0 0.0 0.00 0.00 0.00 81 1016.0
20260502121542 10 0 0.0 1.6 0.00 0.00 0.00 81 1016.1
20260502114556 10 0 0.0 1.6 0.00 0.00 0.00 82 1016.3
20260502113054 10 0 0.0 1.6 0.00 0.00 0.00 82 1016.3
20260502111551 10 0 0.0 0.0 0.00 0.00 0.00 83 1016.3
20260502110044 10 0 0.0 0.0 0.00 0.00 0.00 84 1016.4
20260502104549 10 0 0.0 0.0 0.00 0.00 0.00 84 1016.4
20260502103048 10 0 0.0 0.0 0.00 0.00 0.00 85 1016.4
20260502101616 10 0 0.0 0.0 0.00 0.00 0.00 84 1016.5
20260502090104 11 0 0.0 0.0 0.00 0.00 0.00 79 1016.7
20260502070058 12 5 0.0 4.8 0.00 0.00 0.00 72 1017.3
20260502064548 12 9 1.6 4.8 0.00 0.00 0.00 72 1017.4
20260502063050 12 31 0.0 3.2 0.00 0.00 0.00 72 1017.5
20260502061543 13 0 0.0 3.2 0.00 0.00 0.00 70 1017.6
20260502060044 13 0 0.0 3.2 0.00 0.00 0.00 69 1017.6
20260502054544 13 0 0.0 8.0 0.00 0.00 0.00 69 1017.3
20260502053044 13 0 1.6 4.8 0.00 0.00 0.00 68 1017.1
20260502051603 14 10 0.0 6.4 0.00 0.00 0.00 66 1017.0
20260502050042 14 23 0.0 3.2 0.00 0.00 0.00 66 1017.1
20260502044545 15 22 0.0 3.2 0.00 0.00 0.00 65 1016.9
20260502043039 15 9 0.0 4.8 0.00 0.00 0.00 63 1016.6
20260502041544 15 5 0.0 3.2 0.00 0.00 0.00 62 1016.5
20260502040053 16 22 0.0 3.2 0.00 0.00 0.00 62 1016.4
20260502034544 16 58 0.0 4.8 0.00 0.00 0.00 62 1016.1
20260502033044 17 13 1.6 6.4 0.00 0.00 0.00 60 1015.8
20260502031543 17 16 1.6 8.0 0.00 0.00 0.00 59 1015.7
20260502030042 18 78 0.0 6.4 0.00 0.00 0.00 60 1015.6
20260502024545 18 0 0.0 8.0 0.00 0.00 0.00 60 1015.4
20260502023104 19 0 0.0 4.8 0.00 0.00 0.00 62 1015.3
20260502021549 19 29 1.6 8.0 0.00 0.00 0.00 60 1015.1
20260502014550 20 5 0.0 8.0 0.00 0.00 0.00 63 1014.9
20260502013059 21 28 3.2 8.0 0.00 0.00 0.00 61 1014.8
20260502011549 21 273 1.6 8.0 0.00 0.00 0.00 60 1014.7
20260502010048 21 5 3.2 9.7 0.00 0.00 0.00 58 1014.7
20260502004604 21 36 1.6 6.4 0.00 0.00 0.00 53 1014.7
20260502003050 22 37 1.6 11.3 0.00 0.00 0.00 54 1014.7
20260502001602 21 37 1.6 6.4 0.00 0.00 0.00 52 1014.7
20260502000042 21 0 1.6 4.8 0.00 0.00 0.00 52 1014.9
20260501234547 21 0 1.6 6.4 0.00 0.00 0.00 52 1014.9
20260501233054 21 255 3.2 9.7 0.00 0.00 0.00 52 1015.1
20260501231545 21 32 1.6 6.4 0.00 0.00 0.00 54 1015.3
20260501230042 21 32 1.6 12.9 0.00 0.00 0.00 56 1015.6
20260501224542 21 36 0.0 9.7 0.00 0.00 0.00 55 1015.7
20260501223043 20 76 1.6 4.8 0.00 0.00 0.00 62 1015.9
20260501221546 20 95 0.0 4.8 0.00 0.00 0.00 63 1016.1
20260501220114 20 185 0.0 6.4 0.00 0.00 0.00 64 1016.4
20260501214545 20 0 0.0 8.0 0.00 0.00 0.00 63 1016.7
20260501213048 18 42 0.0 8.0 0.00 0.00 0.00 63 1016.7
20260501211549 18 48 0.0 6.4 0.00 0.00 0.00 66 1016.8
20260501204551 17 232 1.6 4.8 0.00 0.00 0.00 67 1017.2
20260501203044 17 60 1.6 9.7 0.00 0.00 0.00 69 1017.4
20260501201544 16 81 1.6 9.7 0.00 0.00 0.00 72 1017.5
20260501200048 16 0 0.0 8.0 0.00 0.00 0.00 72 1017.8
20260501194550 15 42 1.6 4.8 0.00 0.00 0.00 75 1018.1
20260501193047 15 27 1.6 9.7 0.00 0.00 0.00 75 1018.3
20260501191542 14 78 0.0 4.8 0.00 0.00 0.00 77 1018.5
20260501190045 14 234 0.0 8.0 0.00 0.00 0.00 77 1018.5
20260501184542 13 5 1.6 6.4 0.00 0.00 0.00 78 1018.5
20260501183056 13 63 0.0 4.8 0.00 0.00 0.00 78 1018.4
20260501181604 13 42 0.0 6.4 0.00 0.00 0.00 80 1018.4
20260501180043 13 0 1.6 4.8 0.00 0.00 0.00 79 1018.5
20260501174545 13 0 1.6 4.8 0.00 0.00 0.00 79 1018.4